Regional Weather Roundup
Issued by NWS

Home | Current Version | Previous Version | Graphics & Text | Print | Product List | Glossary On
Versions: 1 2 3 4 5 6 7 8 9 10 11 12 13 14 15 16 17 18 19 20 21 22 23 24 25 26 27 28 29 30 31 32 33 34 35 36 37 38 39 40 41 42 43 44 45 46 47 48 49 50
000
ASUS43 KBIS 221420
RWRND

NORTH DAKOTA REGIONAL WEATHER ROUNDUP
NATIONAL WEATHER SERVICE BISMARCK ND
900 AM CDT FRI AUG 22 2014

NOTE: "FAIR" INDICATES FEW OR NO CLOUDS BELOW 12,000 FEET WITH NO
SIGNIFICANT WEATHER AND/OR OBSTRUCTIONS TO VISIBILITY.


NDZ001>003-009>011-017-221500-
NORTHWEST NORTH DAKOTA

CITY           SKY/WX    TMP DP  RH WIND       PRES   REMARKS
WILLISTON      CLOUDY    60  55  83 N12       30.09S
MINOT          CLOUDY    59  58  96 N12       30.06S FOG
MINOT AFB      CLOUDY    59  59 100 N10       30.07S FOG
$$

NDZ018>021-031>035-040>046-221500-
SOUTHWEST NORTH DAKOTA

CITY           SKY/WX    TMP DP  RH WIND       PRES   REMARKS
BISMARCK       CLOUDY    67  65  93 W5        30.04S
DICKINSON      CLOUDY    63  60  90 CALM      30.06R
GARRISON         N/A     62  61  96 N8        30.05R
HETTINGER ARPT CLOUDY    65  59  81 CALM      30.07F
$$

NDZ004>008-012>016-024-026-027-054-221500-
NORTHEAST NORTH DAKOTA

CITY           SKY/WX    TMP DP  RH WIND       PRES   REMARKS
GRAND FORKS    CLOUDY    67  65  93 N14       29.96S
GRND FRKS AFB  CLOUDY    66  66 100 N9        30.00R
DEVILS LAKE    CLOUDY    63  57  82 N9        30.02S
$$

NDZ022-023-025-028>030-036>039-047>053-221500-
SOUTHEAST NORTH DAKOTA

CITY           SKY/WX    TMP DP  RH WIND       PRES   REMARKS
FARGO          CLOUDY    68  68 100 N7        29.96R FOG
JAMESTOWN      CLOUDY    68  66  93 NE6       30.01R
$$



USA.gov is the U.S. government's official web portal to all federal, state and local government web resources and services.